Location: Allentsteig
(48.6833°N, 15.3167°E)
Time: 06:37:29
(UTC+00:00)

USA 238 DEB - Pass Details

Date: 22 January 2021
Orbit: 992 x 1220 km, 63.4° (Epoch: 05 March)

Event Time Altitude Azimuth Distance (km) Brightness Sun altitude
Rises 05:55:31 0° 218° (SW) 3,717 6.4 -7.5°
Reaches altitude 10° 05:58:03 10° 219° (SW) 2,786 5.7 -7.1°
Maximum altitude 06:04:37 89° 135° (SE) 1,050 3.7 -6.1°
Drops below altitude 10° 06:11:34 10° 42° (NE) 2,939 6.3 -5.0°
Sets 06:14:18 0° 42° (NE) 3,933 6.9 -4.6°
